Fykan — LLDJ — position and weather

sailwx.info

Track history (hours):
 
Tides and Currents Weather Stations Pressure Air Temp Water Temp Dewpoint Dewpoint Depression Visibility Wind Speed Wind Dir Waves Ship Positions

Fykan

Last reported at 2014-Jul-25 17:07 UTC. Time now 2014-Jul-25 18:33 UTC.
Position N 66°36' E 012°59'.

Length 52 m; draft 3.3 m.

Type: Ship. MMSI: 259681000.

Date/timePositionNaut miles runAvg speedWind from/ knotsBaromVisibWave heightAir tempDewpointWater temp
2014-Jul-25 17:07N 66°36' E 012°59'3 5.3
2014-Jul-25 16:33N 66°34' E 012°54'1 0.2
2014-Jul-25 10:27N 66°34' E 012°50'8 2.1
2014-Jul-25 06:33N 66°34' E 013°11'5 5.0
2014-Jul-25 05:30N 66°37' E 012°59'5 5.2
2014-Jul-25 04:33N 66°34' E 012°50'4 0.4
2014-Jul-24 18:25N 66°35' E 012°42'7 1.7
2014-Jul-24 14:29N 66°36' E 012°59'5 5.5
2014-Jul-24 13:33N 66°34' E 012°47'3 1.1
2014-Jul-24 11:14N 66°36' E 012°42'5 7.6
2014-Jul-24 10:33N 66°34' E 012°54'4 3.8
2014-Jul-24 09:34N 66°37' E 012°60'7 0.4
2014-Jul-23 15:33N 66°38' E 013°18'3 0.4
2014-Jul-23 07:24N 66°38' E 013°09'4 4.5
2014-Jul-23 06:24N 66°37' E 012°59'5 5.1
2014-Jul-23 05:31N 66°34' E 012°50'0 0.0
2014-Jul-22 20:33N 66°34' E 012°50'1 0.4
2014-Jul-22 16:29N 66°34' E 012°54'6 1.5
2014-Jul-22 12:32N 66°36' E 012°40'5 2.4
2014-Jul-22 10:33N 66°34' E 012°50'7 1.7
2014-Jul-22 06:29N 66°34' E 013°07'5 4.7
2014-Jul-22 05:30N 66°37' E 012°59'5 5.4
2014-Jul-22 04:32N 66°34' E 012°50'5 0.7
2014-Jul-21 21:33N 66°36' E 012°40'1 0.4
2014-Jul-21 19:23N 66°36' E 012°41'7 7.1
2014-Jul-21 18:25N 66°34' E 012°58'2 0.4
2014-Jul-21 14:33N 66°36' E 012°59'5 5.0
2014-Jul-21 13:32N 66°34' E 012°47'1 0.3
2014-Jul-21 11:20N 66°35' E 012°45'5 6.3
2014-Jul-21 10:32N 66°34' E 012°58'3 0.7
2014-Jul-21 06:29N 66°37' E 012°59'5 5.2
2014-Jul-21 05:32N 66°34' E 012°50'2 0.3
2014-Jul-20 21:31N 66°35' E 012°45'6 5.6
2014-Jul-20 20:31N 66°35' E 012°59'5 2.4
2014-Jul-20 18:33N 66°35' E 013°11'1 0.7
2014-Jul-20 17:19N 66°34' E 013°11'5 4.3
2014-Jul-20 16:13N 66°38' E 013°09'5 5.1
2014-Jul-20 15:18N 66°36' E 012°59'4 5.3
2014-Jul-20 14:31N 66°34' E 012°50'1 0.0
2014-Jul-19 10:31N 66°34' E 012°49'5 4.5
2014-Jul-19 09:19N 66°37' E 012°59'1 0.3
2014-Jul-19 06:22N 66°36' E 012°59'4 5.0
2014-Jul-19 05:32N 66°34' E 012°50'5 0.4
2014-Jul-18 17:11N 66°37' E 012°59'4 5.5
2014-Jul-18 16:29N 66°34' E 012°54'5 1.0
2014-Jul-18 11:26N 66°36' E 012°41'7 7.0
2014-Jul-18 10:27N 66°34' E 012°59'5 2.2
2014-Jul-18 08:03N 66°36' E 013°12'5 1.9
2014-Jul-18 05:20N 66°36' E 012°59'4 5.2
2014-Jul-18 04:32N 66°34' E 012°50'0 0.0
2014-Jul-17 18:26N 66°34' E 012°50'4 1.1
2014-Jul-17 14:26N 66°36' E 012°59'5 5.8
2014-Jul-17 13:33N 66°34' E 012°47'2 1.2
2014-Jul-17 11:32N 66°35' E 012°42'7 6.0
2014-Jul-17 10:26N 66°35' E 012°59'1 0.3
2014-Jul-17 06:23N 66°36' E 012°59'4 5.1
2014-Jul-17 05:33N 66°34' E 012°50'3 0.4
2014-Jul-16 20:32N 66°36' E 012°44'11 2.3
2014-Jul-16 15:29N 66°38' E 013°13'6 5.2
2014-Jul-16 14:21N 66°36' E 012°59'5 6.2
2014-Jul-16 13:33N 66°34' E 012°47'1 0.2
2014-Jul-16 10:28N 66°34' E 012°48'5 5.4
2014-Jul-16 09:30N 66°37' E 012°59'1 0.2
2014-Jul-16 06:22N 66°36' E 012°59'4 5.2
2014-Jul-16 05:33N 66°34' E 012°50'4 0.5
2014-Jul-15 21:25N 66°35' E 012°42'7 6.0
2014-Jul-15 20:15N 66°37' E 012°59'4 5.5
2014-Jul-15 19:31N 66°38' E 013°09'4 1.9
2014-Jul-15 17:23N 66°37' E 012°59'  
Track history (hours):
 
Tides and Currents Weather Stations Pressure Air Temp Water Temp Dewpoint Dewpoint Depression Visibility Wind Speed Wind Dir Waves Ship Positions

Fykan

Last reported at 2014-Jul-25 17:07 UTC. Time now 2014-Jul-25 18:33 UTC.
Position N 66°36' E 012°59'.

Length 52 m; draft 3.3 m.

Type: Ship. MMSI: 259681000.

Date/timePositionNaut miles runAvg speedWind from/ knotsBaromVisibWave heightAir tempDewpointWater temp
2014-Jul-25 17:07N 66°36' E 012°59'3 5.3
2014-Jul-25 16:33N 66°34' E 012°54'1 0.2
2014-Jul-25 10:27N 66°34' E 012°50'8 2.1
2014-Jul-25 06:33N 66°34' E 013°11'5 5.0
2014-Jul-25 05:30N 66°37' E 012°59'5 5.2
2014-Jul-25 04:33N 66°34' E 012°50'4 0.4
2014-Jul-24 18:25N 66°35' E 012°42'7 1.7
2014-Jul-24 14:29N 66°36' E 012°59'5 5.5
2014-Jul-24 13:33N 66°34' E 012°47'3 1.1
2014-Jul-24 11:14N 66°36' E 012°42'5 7.6
2014-Jul-24 10:33N 66°34' E 012°54'4 3.8
2014-Jul-24 09:34N 66°37' E 012°60'7 0.4
2014-Jul-23 15:33N 66°38' E 013°18'3 0.4
2014-Jul-23 07:24N 66°38' E 013°09'4 4.5
2014-Jul-23 06:24N 66°37' E 012°59'5 5.1
2014-Jul-23 05:31N 66°34' E 012°50'0 0.0
2014-Jul-22 20:33N 66°34' E 012°50'1 0.4
2014-Jul-22 16:29N 66°34' E 012°54'6 1.5
2014-Jul-22 12:32N 66°36' E 012°40'5 2.4
2014-Jul-22 10:33N 66°34' E 012°50'7 1.7
2014-Jul-22 06:29N 66°34' E 013°07'5 4.7
2014-Jul-22 05:30N 66°37' E 012°59'5 5.4
2014-Jul-22 04:32N 66°34' E 012°50'5 0.7
2014-Jul-21 21:33N 66°36' E 012°40'1 0.4
2014-Jul-21 19:23N 66°36' E 012°41'7 7.1
2014-Jul-21 18:25N 66°34' E 012°58'2 0.4
2014-Jul-21 14:33N 66°36' E 012°59'5 5.0
2014-Jul-21 13:32N 66°34' E 012°47'1 0.3
2014-Jul-21 11:20N 66°35' E 012°45'5 6.3
2014-Jul-21 10:32N 66°34' E 012°58'3 0.7
2014-Jul-21 06:29N 66°37' E 012°59'5 5.2
2014-Jul-21 05:32N 66°34' E 012°50'2 0.3
2014-Jul-20 21:31N 66°35' E 012°45'6 5.6
2014-Jul-20 20:31N 66°35' E 012°59'5 2.4
2014-Jul-20 18:33N 66°35' E 013°11'1 0.7
2014-Jul-20 17:19N 66°34' E 013°11'5 4.3
2014-Jul-20 16:13N 66°38' E 013°09'5 5.1
2014-Jul-20 15:18N 66°36' E 012°59'4 5.3
2014-Jul-20 14:31N 66°34' E 012°50'1 0.0
2014-Jul-19 10:31N 66°34' E 012°49'5 4.5
2014-Jul-19 09:19N 66°37' E 012°59'1 0.3
2014-Jul-19 06:22N 66°36' E 012°59'4 5.0
2014-Jul-19 05:32N 66°34' E 012°50'5 0.4
2014-Jul-18 17:11N 66°37' E 012°59'4 5.5
2014-Jul-18 16:29N 66°34' E 012°54'5 1.0
2014-Jul-18 11:26N 66°36' E 012°41'7 7.0
2014-Jul-18 10:27N 66°34' E 012°59'5 2.2
2014-Jul-18 08:03N 66°36' E 013°12'5 1.9
2014-Jul-18 05:20N 66°36' E 012°59'4 5.2
2014-Jul-18 04:32N 66°34' E 012°50'0 0.0
2014-Jul-17 18:26N 66°34' E 012°50'4 1.1
2014-Jul-17 14:26N 66°36' E 012°59'5 5.8
2014-Jul-17 13:33N 66°34' E 012°47'2 1.2
2014-Jul-17 11:32N 66°35' E 012°42'7 6.0
2014-Jul-17 10:26N 66°35' E 012°59'1 0.3
2014-Jul-17 06:23N 66°36' E 012°59'4 5.1
2014-Jul-17 05:33N 66°34' E 012°50'3 0.4
2014-Jul-16 20:32N 66°36' E 012°44'11 2.3
2014-Jul-16 15:29N 66°38' E 013°13'6 5.2
2014-Jul-16 14:21N 66°36' E 012°59'5 6.2
2014-Jul-16 13:33N 66°34' E 012°47'1 0.2
2014-Jul-16 10:28N 66°34' E 012°48'5 5.4
2014-Jul-16 09:30N 66°37' E 012°59'1 0.2
2014-Jul-16 06:22N 66°36' E 012°59'4 5.2
2014-Jul-16 05:33N 66°34' E 012°50'4 0.5
2014-Jul-15 21:25N 66°35' E 012°42'7 6.0
2014-Jul-15 20:15N 66°37' E 012°59'4 5.5
2014-Jul-15 19:31N 66°38' E 013°09'4 1.9
2014-Jul-15 17:23N 66°37' E 012°59'  

Dump ship's entire track history